| time (UTC) | temp F | wind direction | speed MPH | gust MPH | rain 1hr in | rain 24hr in | rain mn in | humidity % | barometer mb |
| 20260504050711 | 53 | 168 | 0.0 | 0.0 | 0.00 | 0.00 | 0.00 | 64 | 1005.4 |
| 20260504045710 | 54 | 168 | 0.0 | 1.0 | 0.00 | 0.00 | 0.00 | 61 | 1005.5 |
| 20260504044711 | 54 | 93 | 1.0 | 2.0 | 0.00 | 0.00 | 0.00 | 61 | 1005.6 |
| 20260504042711 | 55 | 82 | 0.0 | 0.0 | 0.00 | 0.00 | 0.00 | 61 | 1005.8 |
| 20260504041711 | 55 | 82 | 0.0 | 0.0 | 0.00 | 0.00 | 0.00 | 59 | 1006.0 |
| 20260504040710 | 56 | 82 | 0.0 | 0.0 | 0.00 | 0.00 | 0.00 | 57 | 1006.0 |
| 20260504035711 | 57 | 82 | 0.0 | 0.0 | 0.00 | 0.00 | 0.00 | 55 | 1005.9 |
| 20260504034711 | 58 | 82 | 0.0 | 1.0 | 0.00 | 0.00 | 0.00 | 54 | 1006.0 |
| 20260504033710 | 59 | 82 | 0.0 | 2.0 | 0.00 | 0.00 | 0.00 | 52 | 1006.0 |
| 20260504032710 | 60 | 81 | 1.0 | 2.0 | 0.00 | 0.00 | 0.00 | 51 | 1006.0 |
| 20260504031710 | 61 | 76 | 1.0 | 3.0 | 0.00 | 0.00 | 0.00 | 50 | 1006.1 |
| 20260504030711 | 61 | 65 | 2.0 | 3.0 | 0.00 | 0.00 | 0.00 | 50 | 1006.1 |
| 20260504025710 | 61 | 195 | 0.0 | 0.0 | 0.00 | 0.00 | 0.00 | 51 | 1006.3 |
| 20260504023710 | 62 | 195 | 0.0 | 2.0 | 0.00 | 0.00 | 0.00 | 48 | 1006.4 |
| 20260504022710 | 62 | 195 | 0.0 | 2.0 | 0.00 | 0.00 | 0.00 | 46 | 1006.4 |
| 20260504021711 | 63 | 195 | 0.0 | 0.0 | 0.00 | 0.00 | 0.00 | 45 | 1006.4 |
| 20260504020711 | 64 | 195 | 0.0 | 2.0 | 0.00 | 0.00 | 0.00 | 45 | 1006.3 |
| 20260504015710 | 65 | 195 | 1.0 | 2.0 | 0.00 | 0.00 | 0.00 | 43 | 1006.5 |
| 20260504014710 | 66 | 195 | 1.0 | 2.0 | 0.00 | 0.00 | 0.00 | 40 | 1006.5 |
| 20260504013710 | 67 | 195 | 1.0 | 2.0 | 0.00 | 0.00 | 0.00 | 38 | 1006.5 |
| 20260504012710 | 67 | 195 | 0.0 | 3.0 | 0.00 | 0.00 | 0.00 | 38 | 1006.7 |
| 20260504011710 | 69 | 202 | 1.0 | 3.0 | 0.00 | 0.00 | 0.00 | 36 | 1006.7 |
| 20260504010711 | 70 | 192 | 2.0 | 3.0 | 0.00 | 0.00 | 0.00 | 34 | 1006.9 |
| 20260504005711 | 71 | 229 | 2.0 | 6.0 | 0.00 | 0.00 | 0.00 | 34 | 1007.1 |
| 20260504004710 | 71 | 205 | 2.0 | 6.0 | 0.00 | 0.00 | 0.00 | 35 | 1007.1 |
| 20260504002710 | 72 | 211 | 3.0 | 5.0 | 0.00 | 0.00 | 0.00 | 32 | 1007.2 |
| 20260504001711 | 73 | 182 | 0.0 | 2.0 | 0.00 | 0.00 | 0.00 | 29 | 1007.3 |
| 20260503235710 | 73 | 306 | 0.0 | 3.0 | 0.00 | 0.00 | 0.00 | 31 | 1007.6 |
| 20260503234711 | 73 | 253 | 1.0 | 3.0 | 0.00 | 0.00 | 0.00 | 30 | 1007.5 |
| 20260503232710 | 74 | 202 | 3.0 | 9.0 | 0.00 | 0.00 | 0.00 | 31 | 1007.7 |
| 20260503231711 | 74 | 265 | 4.0 | 7.0 | 0.00 | 0.00 | 0.00 | 32 | 1007.6 |
| 20260503225710 | 75 | 302 | 3.0 | 5.0 | 0.00 | 0.00 | 0.00 | 36 | 1007.7 |
| 20260503224710 | 74 | 201 | 0.0 | 3.0 | 0.00 | 0.00 | 0.00 | 41 | 1007.8 |
| 20260503222711 | 75 | 0 | 2.0 | 7.0 | 0.00 | 0.00 | 0.00 | 34 | 1007.8 |
| 20260503220711 | 74 | 11 | 3.0 | 10.0 | 0.00 | 0.00 | 0.00 | 32 | 1008.0 |
| 20260503215710 | 74 | 295 | 2.0 | 8.0 | 0.00 | 0.00 | 0.00 | 31 | 1008.3 |
| 20260503213710 | 76 | 304 | 5.0 | 12.0 | 0.00 | 0.00 | 0.00 | 31 | 1008.6 |
| 20260503212711 | 74 | 69 | 2.0 | 3.0 | 0.00 | 0.00 | 0.00 | 32 | 1008.7 |
| 20260503211710 | 74 | 21 | 2.0 | 12.0 | 0.00 | 0.00 | 0.00 | 31 | 1008.8 |
| 20260503203711 | 73 | 334 | 3.0 | 12.0 | 0.00 | 0.00 | 0.00 | 35 | 1009.3 |
| 20260503201710 | 73 | 67 | 2.0 | 7.0 | 0.00 | 0.00 | 0.00 | 30 | 1009.5 |
| 20260503200711 | 73 | 317 | 5.0 | 9.0 | 0.00 | 0.00 | 0.00 | 33 | 1009.7 |
| 20260503195711 | 74 | 288 | 3.0 | 12.0 | 0.00 | 0.00 | 0.00 | 35 | 1009.9 |
| 20260503192710 | 74 | 306 | 6.0 | 13.0 | 0.00 | 0.00 | 0.00 | 34 | 1010.2 |
| 20260503191711 | 73 | 80 | 4.0 | 9.0 | 0.00 | 0.00 | 0.00 | 33 | 1010.2 |
| 20260503190710 | 73 | 53 | 4.0 | 10.0 | 0.00 | 0.00 | 0.00 | 33 | 1010.5 |
| 20260503185710 | 73 | 13 | 5.0 | 10.0 | 0.00 | 0.00 | 0.00 | 33 | 1010.6 |
| 20260503184710 | 73 | 32 | 10.0 | 13.0 | 0.00 | 0.00 | 0.00 | 38 | 1010.7 |
| 20260503183711 | 72 | 292 | 7.0 | 14.0 | 0.00 | 0.00 | 0.00 | 33 | 1010.8 |
| 20260503182710 | 73 | 301 | 7.0 | 12.0 | 0.00 | 0.00 | 0.00 | 32 | 1010.8 |
| 20260503181710 | 72 | 17 | 5.0 | 12.0 | 0.00 | 0.00 | 0.00 | 37 | 1010.9 |
| 20260503180710 | 72 | 57 | 2.0 | 12.0 | 0.00 | 0.00 | 0.00 | 33 | 1011.1 |
| 20260503175711 | 72 | 30 | 7.0 | 13.0 | 0.00 | 0.00 | 0.00 | 35 | 1011.3 |
| 20260503174710 | 71 | 292 | 2.0 | 10.0 | 0.00 | 0.00 | 0.00 | 35 | 1011.5 |
| 20260503172711 | 70 | 333 | 5.0 | 12.0 | 0.00 | 0.00 | 0.00 | 38 | 1011.6 |
| 20260503171710 | 71 | 46 | 6.0 | 12.0 | 0.00 | 0.00 | 0.00 | 36 | 1011.6 |
| 20260503170710 | 70 | 16 | 3.0 | 10.0 | 0.00 | 0.00 | 0.00 | 39 | 1011.7 |
| 20260503150711 | 66 | 49 | 6.0 | 12.0 | 0.00 | 0.00 | 0.00 | 42 | 1012.2 |
| 20260503110710 | 50 | 278 | 1.0 | 3.0 | 0.00 | 0.00 | 0.00 | 63 | 1010.3 |
| 20260503080711 | 55 | 217 | 10.0 | 16.0 | 0.00 | 0.00 | 0.00 | 44 | 1010.3 |
| 20260503072710 | 55 | 220 | 10.0 | 16.0 | 0.00 | 0.00 | 0.00 | 43 | 1010.6 |
| 20260503070710 | 56 | 215 | 10.0 | 20.0 | 0.00 | 0.00 | 0.00 | 41 | 1010.9 |